Regional Weather Roundup
Issued by NWS

Home | Current Version | Previous Version | Graphics & Text | Print | Product List | Glossary On
Versions: 1 2 3 4 5 6 7 8 9 10 11 12 13 14 15 16 17 18 19 20 21 22 23 24 25 26 27 28 29 30 31 32 33 34 35 36 37 38 39 40 41 42 43 44 45 46 47 48 49 50
000
ASUS45 KSLC 020610
RWRUT

UTAH REGIONAL WEATHER ROUNDUP
NATIONAL WEATHER SERVICE SALT LAKE CITY UT
1200 AM MDT MON MAY 02 2016

UTZ001>011-023>025-020700-

NORTHERN UTAH

CITY           SKY/WX    TMP DP  RH WIND       PRES   REMARKS
BRIGHAM CITY   PTCLDY    51  23  33 E18G25    30.15R
HILL AFB       CLEAR     49  25  39 E20G30    30.13R
LOGAN          CLEAR     49  25  39 E13       30.18R
OGDEN          CLEAR     50  26  39 NE15G26   30.12R
PROVO AIRPORT  PTCLDY    50  27  40 N6        30.11R
SALT LAKE CITY PTCLDY    50  31  48 W6        30.11R
VERNAL         CLEAR     43  25  49 N8        30.18S
WENDOVER       MOCLDY    48  34  57 SW3       30.13S
HEBER CITY     PTCLDY    37  28  70 NE3       30.16R

$$

UTZ012>022-026-027-020700-

SOUTHERN/CENTRAL UTAH

CITY           SKY/WX    TMP DP  RH WIND       PRES   REMARKS
BLANDING       CLOUDY    43  39  88 E3        30.26S
BRYCE CANYON   CLOUDY    39  34  82 CALM      30.19S
CEDAR CITY     CLOUDY    47  36  65 E7        30.11R
DELTA          CLEAR     46  32  57 N9        30.10R
HANKSVILLE     CLOUDY    52  37  58 S8        30.14S
MILFORD        MOCLDY    52  34  50 N9        30.10R
MOAB/CYNLANDS  CLOUDY    52  39  61 SE9       30.13R
PRICE          CLEAR     45  25  45 N12       30.15S
ST GEORGE      PTCLDY    57  43  58 SE7       30.08R

$$

REGIONAL REPORTS     COLORADO/ARIZONA

CITY           SKY/WX    TMP DP  RH WIND       PRES   REMARKS
CRAIG, CO      CLOUDY    39  27  62 S5        30.17R
GRAND JUNCTION LGT RAIN  48  39  71 SE15      30.15R
RIFLE          LGT RAIN  45  39  79 E6        30.17S
MONTROSE       CLOUDY    43  33  68 E9        30.21R
CORTEZ         CLOUDY    42  38  85 W3        30.20S
PAGE, AZ       CLOUDY    52  41  66 CALM      30.12S
GRAND CANYON   CLEAR     38  32  79 CALM      30.16R
KINGMAN        CLEAR     51  32  48 SE9       30.03S
FLAGSTAFF      CLEAR     31  30  96 CALM      30.17R

$$

REGIONAL REPORTS    NEVADA/IDAHO/WYOMING

CITY           SKY/WX    TMP DP  RH WIND       PRES   REMARKS
LAS VEGAS, NV  PTCLDY    65  44  46 S5        29.94R
ELY            CLEAR     34  30  85 S3        30.15S
ELKO           PTCLDY    47  28  47 NE7       30.12S
POCATELLO, ID  CLEAR     50  24  36 CALM      30.14R
BURLEY         CLEAR     45  33  63 CALM      30.11R
EVANSTON, WY   CLEAR     34  22  61 E14       30.23R WCI  25
ROCK SPRINGS   CLEAR     33  24  69 E14       30.25F WCI  23
KEMMERER         N/A     32  25  74 E10       30.26S WCI  24

$$



USA.gov is the U.S. government's official web portal to all federal, state and local government web resources and services.